User: anonymous   Login
Location: Fours
(44.3167°N, 6.7000°E)
Time: 11:41:05
(UTC+00:00)
Language:

Cosmos 1980 Rocket - Orbit

View from above orbital plane
View from above orbital plane
View from above satellite
View from above satellite

Ground track
Ground track

The orbit data is extracted from the following two-line orbital elements,

1 19650U 88102B   22017.90531899 -.00000231  00000-0 -93314-4 0  9998
2 19650  71.0001  91.4277 0013353 161.7635 198.3970 14.15815392712899
Epoch (UTC): 17 January 2022 21:43:39
Eccentricity: 0.0013353
inclination: 71.0001°
perigee height: 830 km
apogee height: 849 km
right ascension of ascending node: 91.4277°
argument of perigee: 161.7635°
revolutions per day: 14.15815392
mean anomaly at epoch: 198.3970°
orbit number at epoch: 71289

The dashed part of the orbit path shows where the satellite is in the earth's shadow,  

DLR